Marianna, FL

4:52 PM CDT on April 29, 2017 (GMT -0500)
Marianna Municipal

Weather History for KMAI - March, 2014

Change the Weather History Date:

Saturday, March 15, 2014

  Actual Average Record
Temperature  
Mean Temperature 58 °F 60 °F  
Max Temperature 73 °F 72 °F 87 °F (2012)
Min Temperature 42 °F 48 °F 34 °F (2017)
Degree Days  
Heating Degree Days 7    
Month to date heating degree days 145  
Since 1 July heating degree days 1605  
Cooling Degree Days 0    
Month to date cooling degree days 1  
Year to date cooling degree days 10  
Growing Degree Days 8 (Base 50)    
Moisture  
Dew Point 49 °F    
Average Humidity 73    
Maximum Humidity 100    
Minimum Humidity 46    
Precipitation  
Precipitation 0.00 in 0.17 in 0.66 in (2001)
Month to date precipitation 1.26 2.34  
Year to date precipitation 8.59 12.32  
Sea Level Pressure  
Sea Level Pressure 30.08 in    
Wind  
Wind Speed 3 mph (ESE)    
Max Wind Speed 10 mph    
Max Gust Speed 12 mph    
Visibility 10 miles    
Events      
T = Trace of Precipitation, MM = Missing Value Source: NWS Daily Summary

Daily Weather History Graph

Daily Weather History Graph

Search for Another Location

Airport or City:

Trip Planner

Search our weather history database for the weather conditions in past years. The results will help you decide how hot, cold, wet, or windy it might be!

Date:

Astronomy

Mar. 15, 2014 Rise Set
Actual Time 6:50 AM CDT 6:48 PM CDT
Civil Twilight 6:26 AM CDT 7:13 PM CDT
Nautical Twilight 5:58 AM CDT 7:41 PM CDT
Astronomical Twilight 5:30 AM CDT 8:09 PM CDT
Moon 6:08 PM CDT (3/15) 5:59 AM CDT (3/15)
Length of Visible Light 12h 46m
Length of Day
11h 58m
Waxing Gibbous, 99% of the Moon is Illuminated
Mar 15
Waxing Gibbous
Mar 16
Full
Mar 23
Last Quarter
Mar 30
New
Apr 7
First Quarter

Hourly Weather History & Observations

Time (CDT) Temp. Dew Point Humidity Pressure Visibility Wind Dir Wind Speed Gust Speed Precip Events Conditions
12:53 AM 46.9 °F 43.0 °F 86% 30.17 in 10.0 mi Calm Calm - N/A   Clear
1:53 AM 46.0 °F 43.0 °F 89% 30.14 in 10.0 mi Calm Calm - N/A   Clear
2:53 AM 45.0 °F 43.0 °F 93% 30.13 in 10.0 mi Calm Calm - N/A   Clear
3:53 AM 44.1 °F 43.0 °F 96% 30.12 in 10.0 mi Calm Calm - N/A   Clear
4:53 AM 45.0 °F 43.0 °F 93% 30.13 in 10.0 mi Calm Calm - N/A   Clear
5:53 AM 45.0 °F 44.1 °F 97% 30.12 in 10.0 mi Calm Calm - N/A   Mostly Cloudy
6:53 AM 43.0 °F 42.1 °F 97% 30.14 in 10.0 mi Calm Calm - N/A   Clear
7:53 AM 50.0 °F 46.0 °F 86% 30.15 in 9.0 mi Calm Calm - N/A   Clear
8:53 AM 57.0 °F 48.9 °F 74% 30.16 in 10.0 mi SE 3.5 mph - N/A   Scattered Clouds
9:53 AM 64.9 °F 52.0 °F 63% 30.16 in 10.0 mi South 5.8 mph - N/A   Clear
10:53 AM 68.0 °F 53.1 °F 59% 30.13 in 10.0 mi SE 8.1 mph - N/A   Clear
11:53 AM 69.1 °F 52.0 °F 54% 30.12 in 10.0 mi ESE 6.9 mph - N/A   Mostly Cloudy
12:53 PM 69.1 °F 52.0 °F 54% 30.10 in 10.0 mi Variable 4.6 mph - N/A   Overcast
1:53 PM 73.0 °F 52.0 °F 48% 30.06 in 10.0 mi Calm Calm - N/A   Mostly Cloudy
2:53 PM 71.1 °F 51.1 °F 49% 30.04 in 10.0 mi Calm Calm - N/A   Overcast
3:53 PM 71.1 °F 52.0 °F 51% 30.02 in 10.0 mi North 5.8 mph - N/A   Overcast
4:53 PM 70.0 °F 53.1 °F 55% 30.00 in 10.0 mi NNE 5.8 mph - N/A   Overcast
5:53 PM 68.0 °F 53.1 °F 59% 30.01 in 10.0 mi NNE 9.2 mph - N/A   Overcast
6:53 PM 66.9 °F 53.1 °F 61% 30.03 in 10.0 mi ESE 3.5 mph - N/A   Overcast
7:53 PM 66.9 °F 52.0 °F 59% 30.00 in 10.0 mi Calm Calm - N/A   Overcast
8:53 PM 64.9 °F 53.1 °F 65% 30.02 in 10.0 mi South 5.8 mph - N/A   Overcast
9:53 PM 64.0 °F 53.1 °F 67% 30.01 in 10.0 mi SE 3.5 mph - N/A   Mostly Cloudy
10:53 PM 63.0 °F 53.1 °F 70% 29.99 in 10.0 mi SE 4.6 mph - N/A   Overcast
11:53 PM 62.1 °F 53.1 °F 72% 29.98 in 10.0 mi South 4.6 mph - N/A   Overcast